Wind_Speed
31 31 30 30 28 26 23 21 21 22 20 19 17 16 16 17 20 23 27 30 31 32 33 34 34 33 32 33 35 38 42 43
34 35 33 31 29 28 26 25 24 23 21 20 18 16 15 16 21 24 29 31 32 31 32 32 30 29 30 33 36 37 38 41
37 38 35 34 31 31 29 27 26 24 22 20 18 15 14 17 22 26 29 31 31 31 31 31 29 28 29 33 35 36 37 41
41 38 36 35 33 31 30 28 27 25 22 18 16 14 16 19 23 26 28 29 30 31 31 29 27 28 30 32 34 34 34 39
43 41 39 36 34 32 31 29 28 25 21 17 14 13 16 19 24 25 25 27 29 29 28 28 27 29 30 31 33 34 36 37
40 41 39 37 35 32 32 30 29 25 20 17 12 14 17 21 22 23 25 26 27 27 27 27 26 27 28 29 30 31 31 33
43 44 43 41 38 35 33 32 30 24 20 14 12 14 18 20 21 22 23 25 27 27 26 24 24 25 26 26 27 29 29 34
40 48 47 45 42 38 36 34 28 22 17 14 13 15 18 20 21 21 22 24 25 25 24 22 22 22 22 22 24 26 27 29
35 42 47 48 45 39 35 33 27 21 22 12 12 16 19 20 19 20 22 23 24 23 21 20 20 20 20 21 22 23 24 24
38 37 40 44 46 40 36 36 27 23 13 10 14 20 21 18 19 20 21 22 23 22 19 18 18 18 18 18 19 20 22 24
34 39 39 42 43 41 41 35 27 17 9 12 16 20 18 18 20 20 21 22 22 20 18 17 16 16 16 17 17 18 20 21
28 27 33 40 44 42 42 36 27 14 12 14 19 18 19 20 21 22 22 22 21 19 17 16 15 15 14 15 16 17 19 19
25 26 25 30 39 46 43 32 22 18 15 21 20 20 21 22 22 22 22 21 20 17 16 15 14 14 13 13 14 15 16 17
27 32 34 34 39 42 41 31 24 22 24 22 21 20 24 24 23 22 22 21 19 15 15 14 14 13 13 12 12 14 14 15
26 29 29 32 40 41 33 29 25 27 23 23 22 24 26 25 23 22 21 20 16 14 15 14 13 13 13 11 12 12 14 14
15 18 23 32 37 36 27 27 25 26 26 24 25 26 27 25 23 22 21 18 16 16 15 14 13 13 12 11 11 12 13 13
19 21 21 23 19 23 21 17 20 26 28 27 27 28 27 25 23 22 20 18 17 17 16 15 14 14 12 11 11 11 12 13
25 21 23 18 21 21 23 24 23 25 26 29 29 28 27 25 23 22 20 18 17 16 16 15 15 14 13 12 12 11 11 12
28 28 26 24 19 23 24 21 25 26 26 29 29 28 26 24 23 21 19 17 17 17 16 15 15 14 14 13 13 12 11 11
Wind_Direction
242 236 230 233 237 231 233 237 240 240 237 239 244 258 274 295 310 321 326 326 323 320 320 319 317 315 315 317 321 323 325 320
239 233 231 233 234 232 235 236 238 238 237 239 248 260 281 304 316 323 325 323 321 320 320 318 316 316 319 323 329 331 329 326
240 235 232 231 232 233 235 236 237 236 235 240 249 267 291 310 317 322 323 321 321 320 317 315 314 317 319 325 324 327 327 333
240 236 233 232 233 235 234 234 234 234 234 240 254 280 300 308 315 319 321 320 317 314 314 313 312 314 320 324 326 330 334 334
236 236 232 233 233 234 234 233 232 231 233 242 259 284 298 309 314 317 317 314 313 315 313 311 310 317 323 326 328 327 329 333
233 237 234 235 235 236 234 232 230 229 232 242 262 284 305 311 313 314 313 313 316 315 313 310 313 320 325 327 330 330 335 340
234 231 234 233 232 232 232 230 226 224 230 242 270 296 308 308 310 312 313 317 316 313 310 311 317 321 324 326 334 335 334 336
237 233 231 231 233 232 228 225 219 222 234 255 277 303 304 305 310 313 314 314 310 309 309 313 318 321 323 328 334 340 343 343
239 235 232 234 235 229 225 219 210 240 243 253 288 300 302 305 310 309 307 308 307 308 308 310 314 315 320 324 331 337 344 344
232 234 232 235 233 228 221 213 237 226 231 275 296 299 294 302 304 303 307 306 305 307 306 307 307 310 317 325 331 338 343 348
230 228 232 236 230 223 213 214 213 217 244 280 292 282 296 303 301 306 308 307 306 305 299 299 303 309 316 325 331 338 341 350
236 232 228 227 224 217 214 210 216 221 261 276 267 286 297 298 306 309 306 306 305 302 293 295 300 306 316 323 332 338 339 347
239 241 232 230 221 212 206 207 214 246 273 254 269 285 300 305 306 304 304 306 303 296 289 293 297 305 313 321 330 336 341 346
238 238 235 222 209 202 199 210 226 272 240 252 269 290 299 301 300 299 303 302 296 289 289 290 296 302 307 315 325 332 339 344
238 234 224 203 193 195 200 221 238 237 243 254 271 283 293 296 296 299 299 296 291 286 287 288 292 296 299 309 321 331 337 345
218 204 193 175 175 189 215 225 233 240 247 257 265 276 289 294 295 295 295 294 287 279 282 285 285 287 293 305 316 327 332 344
186 166 169 172 188 200 211 230 248 253 251 252 262 274 287 290 292 294 292 287 278 277 277 277 279 282 288 297 306 316 328 337
196 199 188 203 205 206 224 236 247 246 248 250 260 273 284 287 291 291 285 279 273 273 272 273 276 279 284 291 297 306 317 326
207 199 206 199 215 228 228 236 242 247 255 251 260 273 281 285 288 285 279 276 270 268 269 271 273 277 281 286 291 297 305 313
Height
3107 3109 3111 3112 3114 3116 3117 3118 3120 3122 3123 3123 3123 3123 3123 3122 3120 3118 3115 3112 3108 3104 3100 3096 3092 3087 3083 3078 3074 3068 3060 3053
3099 3102 3104 3106 3108 3109 3111 3113 3115 3116 3116 3117 3118 3118 3118 3116 3114 3112 3108 3105 3101 3097 3093 3090 3086 3081 3076 3072 3066 3061 3056 3048
3091 3093 3097 3099 3102 3103 3105 3107 3109 3110 3111 3112 3112 3113 3111 3110 3108 3105 3102 3098 3095 3091 3088 3084 3080 3076 3072 3068 3063 3057 3049 3040
3082 3086 3089 3092 3094 3097 3099 3101 3102 3104 3105 3106 3106 3106 3105 3104 3102 3100 3096 3092 3089 3086 3082 3078 3075 3072 3068 3063 3058 3050 3044 3037
3073 3077 3081 3084 3087 3089 3091 3094 3096 3098 3100 3101 3101 3100 3100 3099 3096 3093 3090 3087 3084 3080 3076 3073 3071 3067 3062 3057 3051 3046 3039 3031
3065 3069 3074 3077 3080 3083 3085 3087 3090 3092 3094 3095 3095 3095 3094 3093 3090 3087 3084 3081 3077 3075 3072 3070 3066 3062 3057 3052 3048 3042 3034 3026
3056 3060 3064 3068 3072 3075 3078 3081 3084 3087 3089 3090 3090 3090 3088 3086 3084 3081 3078 3074 3073 3071 3068 3065 3061 3057 3053 3049 3044 3038 3030 3023
3046 3049 3054 3059 3063 3067 3071 3075 3079 3082 3084 3085 3085 3083 3082 3080 3078 3075 3073 3071 3069 3067 3063 3060 3056 3053 3049 3045 3040 3035 3028 3020
3038 3041 3046 3051 3056 3061 3066 3070 3074 3077 3080 3080 3079 3078 3077 3075 3073 3071 3070 3067 3065 3062 3059 3055 3052 3049 3046 3042 3037 3031 3026 3019
3030 3034 3038 3043 3048 3054 3060 3064 3068 3072 3074 3073 3073 3074 3072 3070 3069 3068 3065 3063 3060 3057 3054 3052 3049 3047 3042 3038 3033 3029 3023 3016
3022 3025 3030 3035 3041 3048 3054 3059 3063 3066 3067 3068 3068 3069 3067 3065 3065 3062 3060 3058 3055 3052 3050 3048 3044 3042 3038 3034 3030 3025 3020 3014
3014 3018 3021 3026 3032 3040 3047 3053 3058 3060 3061 3062 3063 3062 3061 3061 3059 3057 3056 3053 3050 3047 3046 3043 3040 3038 3034 3030 3026 3023 3018 3012
3008 3012 3015 3020 3024 3031 3040 3048 3052 3054 3055 3057 3058 3057 3055 3054 3053 3052 3050 3047 3045 3043 3041 3039 3037 3034 3031 3027 3024 3021 3017 3012
3005 3006 3007 3011 3017 3026 3036 3042 3045 3047 3050 3051 3051 3050 3050 3049 3048 3047 3045 3043 3041 3038 3036 3035 3033 3031 3029 3025 3022 3019 3015 3011
2997 2998 3000 3004 3013 3024 3033 3036 3039 3041 3044 3045 3045 3046 3045 3044 3043 3041 3039 3038 3035 3034 3032 3031 3029 3028 3026 3023 3020 3017 3014 3010
2994 2994 2997 3002 3012 3022 3027 3030 3034 3037 3038 3039 3040 3041 3040 3038 3037 3036 3034 3031 3030 3029 3028 3027 3026 3025 3023 3021 3018 3015 3013 3009
2994 2997 3002 3007 3012 3018 3023 3027 3030 3032 3032 3033 3033 3035 3034 3032 3031 3029 3028 3026 3026 3025 3023 3023 3023 3022 3020 3018 3016 3013 3011 3008
2994 2998 3003 3007 3010 3014 3018 3020 3023 3024 3025 3026 3027 3028 3027 3026 3024 3023 3023 3022 3021 3020 3020 3019 3019 3018 3017 3015 3014 3012 3009 3006
2990 2994 2998 3002 3005 3008 3011 3013 3015 3017 3018 3020 3021 3021 3020 3019 3018 3018 3017 3016 3016 3016 3016 3015 3015 3014 3013 3012 3011 3009 3007 3004